YB2SAT-13 Weather Reports


time (UTC)temp
F
wind
direction
speed
knots
gust
knots
rain 1hr
in
rain 24hr
in
rain mn
in
humidity
%
barometer
mb
20260502194552 81 200 7.8 0.0 0.00 0.00 0.00 100 1009.0
20260502193054 80 200 7.8 0.0 0.00 0.00 0.00 100 1009.0
20260502191552 81 200 7.8 0.0 0.00 0.00 0.00 100 1009.0
20260502190054 80 200 7.8 0.0 0.00 0.00 0.00 100 1009.0
20260502184552 81 200 7.8 0.0 0.00 0.00 0.00 100 1009.0
20260502183053 80 200 7.8 0.0 0.00 0.00 0.00 100 1009.0
20260502181552 82 200 7.8 0.0 0.00 0.00 0.00 100 1009.0
20260502163052 81 200 7.8 0.0 0.00 0.00 0.00 100 1010.0
20260502161551 80 200 7.8 0.0 0.00 0.00 0.00 100 1010.0
20260502151551 82 200 7.8 0.0 0.00 0.00 0.00 100 1010.0
20260502123014 87 300 7.8 0.0 0.00 0.00 0.00 74 1010.0
20260502121514 87 300 7.8 0.0 0.00 0.00 0.00 74 1009.0
20260502114514 86 310 7.8 0.0 0.00 0.00 0.00 79 1009.0
20260502113014 85 320 7.0 0.0 0.00 0.00 0.00 84 1009.0
20260502111514 84 320 7.0 0.0 0.00 0.00 0.00 84 1008.0
20260502110016 86 320 7.0 0.0 0.00 0.00 0.00 84 1008.0
20260502104514 86 320 7.0 0.0 0.00 0.00 0.00 84 1008.0
20260502103014 87 330 8.7 0.0 0.00 0.00 0.00 71 1008.0
20260502101514 87 330 8.7 0.0 0.00 0.00 0.00 71 1007.0
20260502091514 89 330 8.7 0.0 0.00 0.00 0.00 70 1007.0
20260502071514 90 350 8.7 0.0 0.00 0.00 0.00 68 1007.0
20260502070018 92 350 8.7 0.0 0.00 0.00 0.00 68 1007.0
20260502064514 91 350 8.7 0.0 0.00 0.00 0.00 68 1007.0
20260502063016 90 350 8.7 0.0 0.00 0.00 0.00 68 1007.0
20260502061514 93 350 8.7 0.0 0.00 0.00 0.00 68 1008.0
20260502060020 92 110 8.7 0.0 0.00 0.00 0.00 68 1008.0
20260502054514 91 110 8.7 0.0 0.00 0.00 0.00 68 1008.0
20260502053014 90 110 8.7 0.0 0.00 0.00 0.00 68 1008.0
20260502051514 93 110 8.7 0.0 0.00 0.00 0.00 69 1009.0
20260502050016 92 110 8.7 0.0 0.00 0.00 0.00 69 1008.0
20260502044514 91 110 8.7 0.0 0.00 0.00 0.00 69 1009.0
20260502043014 90 110 8.7 0.0 0.00 0.00 0.00 69 1009.0
20260502041514 89 110 8.7 0.0 0.00 0.00 0.00 69 1009.0
20260502040015 88 110 8.7 0.0 0.00 0.00 0.00 69 1009.0
20260502034514 91 110 8.7 0.0 0.00 0.00 0.00 70 1009.0
20260502033014 90 100 8.7 0.0 0.00 0.00 0.00 70 1010.0
20260502031514 89 100 8.7 0.0 0.00 0.00 0.00 70 1010.0
20260502030014 88 100 8.7 0.0 0.00 0.00 0.00 70 1010.0
20260502024528 87 57 2.6 3.5 0.00 0.00 0.00 70 1010.0
20260502023028 87 51 2.6 3.5 0.00 0.00 0.00 71 1010.0
20260502021528 87 55 1.7 2.6 0.00 0.00 0.00 78 1010.0
20260502020028 87 55 1.7 2.6 0.00 0.00 0.00 74 1010.0
20260502014528 87 64 1.7 2.6 0.00 0.00 0.00 76 1010.0
20260502013028 86 55 1.7 2.6 0.00 0.00 0.00 77 1010.0
20260502011528 86 102 0.9 0.9 0.00 0.00 0.00 84 1010.0
20260502010028 84 99 0.9 0.9 0.00 0.00 0.00 83 1010.0
20260502004528 84 99 0.9 0.9 0.00 0.00 0.00 81 1010.0
20260502003028 84 99 0.9 0.9 0.00 0.00 0.00 81 1010.0
20260502001528 82 198 1.7 1.7 0.00 0.00 0.00 88 1010.0
20260502000028 82 198 1.7 1.7 0.00 0.00 0.00 88 1010.0
20260501234528 82 208 1.7 0.9 0.00 0.00 0.00 89 1010.0
20260501233028 82 208 1.7 0.9 0.00 0.00 0.00 89 1010.0
20260501231528 80 203 1.7 1.7 0.00 0.00 0.00 91 1009.0
20260501230028 79 203 1.7 1.7 0.00 0.00 0.00 91 1009.0
20260501224528 79 203 1.7 1.7 0.00 0.00 0.00 90 1009.0
20260501223028 80 203 1.7 1.7 0.00 0.00 0.00 89 1009.0
20260501221528 80 201 1.7 1.7 0.00 0.00 0.00 91 1008.0
20260501220028 80 201 1.7 1.7 0.00 0.00 0.00 89 1008.0
20260501214528 80 201 1.7 1.7 0.00 0.00 0.00 90 1008.0
20260501213028 80 201 1.7 1.7 0.00 0.00 0.00 89 1008.0
20260501211528 81 199 1.7 1.7 0.00 0.00 0.00 92 1008.0
20260501210028 81 199 1.7 1.7 0.00 0.00 0.00 90 1008.0
20260501204528 81 199 1.7 1.7 0.00 0.00 0.00 90 1008.0
20260501203028 81 199 1.7 1.7 0.00 0.00 0.00 90 1008.0
20260501201528 82 193 2.6 2.6 0.00 0.00 0.00 90 1008.0
20260501200029 81 193 2.6 2.6 0.00 0.00 0.00 90 1008.0